owner,sensor,date,latitude,longitude,vertical_datum,mass_concentration_of_oxygen_in_sea_water,qcFlag 
DISL,ioos:station:DISL:MHPA:1,2008-01-01T06:30:00Z,30.6671,-87.9365,3.235,8.43,1111122 
DISL,ioos:station:DISL:MHPA:1,2008-01-01T07:00:00Z,30.6671,-87.9365,3.183,8.38,1111122 
DISL,ioos:station:DISL:MHPA:1,2008-01-01T07:30:00Z,30.6671,-87.9365,3.104,8.26,1111122 
DISL,ioos:station:DISL:MHPA:1,2008-01-01T08:00:00Z,30.6671,-87.9365,2.99,8.71,1111122 
DISL,ioos:station:DISL:MHPA:1,2008-01-01T08:30:00Z,30.6671,-87.9365,2.919,9.54,1111122 
DISL,ioos:station:DISL:MHPA:1,2008-01-01T09:00:00Z,30.6671,-87.9365,2.818,8.86,1111122 
DISL,ioos:station:DISL:MHPA:1,2008-01-01T09:30:00Z,30.6671,-87.9365,2.649,7.95,1111122 
DISL,ioos:station:DISL:MHPA:1,2008-01-01T10:00:00Z,30.6671,-87.9365,2.448,7.7,1111122 
DISL,ioos:station:DISL:MHPA:1,2008-01-01T10:30:00Z,30.6671,-87.9365,2.247,8.3,1111122 
DISL,ioos:station:DISL:MHPA:1,2008-01-01T11:00:00Z,30.6671,-87.9365,2.068,7.35,1111122 
DISL,ioos:station:DISL:MHPA:1,2008-01-01T11:30:00Z,30.6671,-87.9365,1.926,7.25,1111122 
DISL,ioos:station:DISL:MHPA:1,2008-01-01T12:00:00Z,30.6671,-87.9365,1.796,6.91,1111122 
DISL,ioos:station:DISL:MHPA:1,2008-01-01T12:30:00Z,30.6671,-87.9365,1.726,6.64,1111122 
DISL,ioos:station:DISL:MHPA:1,2008-01-01T13:00:00Z,30.6671,-87.9365,1.729,6.63,1111122 
DISL,ioos:station:DISL:MHPA:1,2008-01-01T13:30:00Z,30.6671,-87.9365,1.712,6.29,1111122 
DISL,ioos:station:DISL:MHPA:1,2008-01-01T14:00:00Z,30.6671,-87.9365,1.627,6.1,1111122 
DISL,ioos:station:DISL:MHPA:1,2008-01-01T14:30:00Z,30.6671,-87.9365,1.518,7.4,1111122 
DISL,ioos:station:DISL:MHPA:1,2008-01-01T15:00:00Z,30.6671,-87.9365,1.414,8.51,1111122 
DISL,ioos:station:DISL:MHPA:1,2008-01-01T15:30:00Z,30.6671,-87.9365,1.317,8.65,1111122 
DISL,ioos:station:DISL:MHPA:1,2008-01-01T16:00:00Z,30.6671,-87.9365,1.258,9.31,1111122 
DISL,ioos:station:DISL:MHPA:1,2008-01-01T16:30:00Z,30.6671,-87.9365,1.203,9.57,1111122 
DISL,ioos:station:DISL:MHPA:1,2008-01-01T17:00:00Z,30.6671,-87.9365,1.155,8.67,1111122 
DISL,ioos:station:DISL:MHPA:1,2008-01-01T17:30:00Z,30.6671,-87.9365,1.141,9.61,1111122 
DISL,ioos:station:DISL:MHPA:1,2008-01-01T18:00:00Z,30.6671,-87.9365,1.134,9.5,1111122 
DISL,ioos:station:DISL:MHPA:1,2008-01-01T18:30:00Z,30.6671,-87.9365,1.136,9.51,1111122 
DISL,ioos:station:DISL:MHPA:1,2008-01-01T19:00:00Z,30.6671,-87.9365,1.191,9.6,1111122 
DISL,ioos:station:DISL:MHPA:1,2008-01-01T19:30:00Z,30.6671,-87.9365,1.292,9.57,1111122 
DISL,ioos:station:DISL:MHPA:1,2008-01-01T20:00:00Z,30.6671,-87.9365,1.368,9.55,1111122 
DISL,ioos:station:DISL:MHPA:1,2008-01-01T20:30:00Z,30.6671,-87.9365,1.563,9.59,1111122 
DISL,ioos:station:DISL:MHPA:1,2008-01-01T21:00:00Z,30.6671,-87.9365,1.754,10.02,1111122 
DISL,ioos:station:DISL:MHPA:1,2008-01-01T21:30:00Z,30.6671,-87.9365,1.719,9.58,1111122 
DISL,ioos:station:DISL:MHPA:1,2008-01-01T22:00:00Z,30.6671,-87.9365,1.697,9.99,1111122 
DISL,ioos:station:DISL:MHPA:1,2008-01-01T22:30:00Z,30.6671,-87.9365,1.925,10.3,1111122 
DISL,ioos:station:DISL:MHPA:1,2008-01-01T23:00:00Z,30.6671,-87.9365,1.982,9.96,1111122 
DISL,ioos:station:DISL:MHPA:1,2008-01-01T23:30:00Z,30.6671,-87.9365,2.047,9.88,1111122 
DISL,ioos:station:DISL:MHPA:1,2008-01-02T00:00:00Z,30.6671,-87.9365,2.183,10.02,1111122 
DISL,ioos:station:DISL:MHPA:1,2008-01-02T00:30:00Z,30.6671,-87.9365,2.222,10.4,1111122 
DISL,ioos:station:DISL:MHPA:1,2008-01-02T01:00:00Z,30.6671,-87.9365,2.247,10.14,1111122 
DISL,ioos:station:DISL:MHPA:1,2008-01-02T01:30:00Z,30.6671,-87.9365,2.361,9.88,1111122 
DISL,ioos:station:DISL:MHPA:1,2008-01-02T02:00:00Z,30.6671,-87.9365,2.435,9.62,1111122 
DISL,ioos:station:DISL:MHPA:1,2008-01-02T02:30:00Z,30.6671,-87.9365,2.336,10.33,1111122 
DISL,ioos:station:DISL:MHPA:1,2008-01-02T03:00:00Z,30.6671,-87.9365,2.253,10.43,1111122 
DISL,ioos:station:DISL:MHPA:1,2008-01-02T03:30:00Z,30.6671,-87.9365,2.123,10.36,1111122 
DISL,ioos:station:DISL:MHPA:1,2008-01-02T04:00:00Z,30.6671,-87.9365,1.998,10.19,1111122 
DISL,ioos:station:DISL:MHPA:1,2008-01-02T04:30:00Z,30.6671,-87.9365,1.9,9.94,1111122 
DISL,ioos:station:DISL:MHPA:1,2008-01-02T05:00:00Z,30.6671,-87.9365,1.826,10.14,1111122 
DISL,ioos:station:DISL:MHPA:1,2008-01-02T05:30:00Z,30.6671,-87.9365,1.791,9.99,1111122 
DISL,ioos:station:DISL:MHPA:1,2008-01-02T06:00:00Z,30.6671,-87.9365,1.754,9.53,1111122 
DISL,ioos:station:DISL:MHPA:1,2008-01-02T06:30:00Z,30.6671,-87.9365,1.713,10.23,1111122 
DISL,ioos:station:DISL:MHPA:1,2008-01-02T07:00:00Z,30.6671,-87.9365,1.654,10.35,1111122 
DISL,ioos:station:DISL:MHPA:1,2008-01-02T07:30:00Z,30.6671,-87.9365,1.582,10.29,1111122 
DISL,ioos:station:DISL:MHPA:1,2008-01-02T08:00:00Z,30.6671,-87.9365,1.497,10.12,1111122 
DISL,ioos:station:DISL:MHPA:1,2008-01-02T08:30:00Z,30.6671,-87.9365,1.401,10.31,1111122 
DISL,ioos:station:DISL:MHPA:1,2008-01-02T09:00:00Z,30.6671,-87.9365,1.312,10.22,1111122 
DISL,ioos:station:DISL:MHPA:1,2008-01-02T09:30:00Z,30.6671,-87.9365,1.249,10.34,1111122 
DISL,ioos:station:DISL:MHPA:1,2008-01-02T10:00:00Z,30.6671,-87.9365,1.2,10.41,1111122 
DISL,ioos:station:DISL:MHPA:1,2008-01-02T10:30:00Z,30.6671,-87.9365,1.165,10.48,1111122 
DISL,ioos:station:DISL:MHPA:1,2008-01-02T11:00:00Z,30.6671,-87.9365,1.142,10.31,1111122 
DISL,ioos:station:DISL:MHPA:1,2008-01-02T11:30:00Z,30.6671,-87.9365,1.122,10.39,1111122 
DISL,ioos:station:DISL:MHPA:1,2008-01-02T12:00:00Z,30.6671,-87.9365,1.109,10.39,1111122 
DISL,ioos:station:DISL:MHPA:1,2008-01-02T12:30:00Z,30.6671,-87.9365,1.098,10.23,1111122 
DISL,ioos:station:DISL:MHPA:1,2008-01-02T13:00:00Z,30.6671,-87.9365,1.085,10.18,1111122 
DISL,ioos:station:DISL:MHPA:1,2008-01-02T13:30:00Z,30.6671,-87.9365,1.076,9.94,1111122 
DISL,ioos:station:DISL:MHPA:1,2008-01-02T14:30:00Z,30.6671,-87.9365,1.057,10.46,1111122 
DISL,ioos:station:DISL:MHPA:1,2008-01-02T15:00:00Z,30.6671,-87.9365,1.044,10.43,1111122 
DISL,ioos:station:DISL:MHPA:1,2008-01-02T15:30:00Z,30.6671,-87.9365,1.033,10.37,1111122 
DISL,ioos:station:DISL:MHPA:1,2008-01-02T16:00:00Z,30.6671,-87.9365,1.028,10.55,1111122 
DISL,ioos:station:DISL:MHPA:1,2008-01-02T16:30:00Z,30.6671,-87.9365,1.024,10.52,1111122 
DISL,ioos:station:DISL:MHPA:1,2008-01-02T17:00:00Z,30.6671,-87.9365,1.015,10.49,1111122 
DISL,ioos:station:DISL:MHPA:1,2008-01-02T17:30:00Z,30.6671,-87.9365,1.015,10.49,1111122 
DISL,ioos:station:DISL:MHPA:1,2008-01-02T18:00:00Z,30.6671,-87.9365,1.008,10.65,1111122 
DISL,ioos:station:DISL:MHPA:1,2008-01-02T18:30:00Z,30.6671,-87.9365,1.001,10.66,1111122 
DISL,ioos:station:DISL:MHPA:1,2008-01-02T19:00:00Z,30.6671,-87.9365,0.998,10.67,1111122 
DISL,ioos:station:DISL:MHPA:1,2008-01-02T19:30:00Z,30.6671,-87.9365,0.996,10.68,1111122 
DISL,ioos:station:DISL:MHPA:1,2008-01-02T20:00:00Z,30.6671,-87.9365,0.986,10.64,1111122 
DISL,ioos:station:DISL:MHPA:1,2008-01-02T20:30:00Z,30.6671,-87.9365,0.99,10.64,1111122 
DISL,ioos:station:DISL:MHPA:1,2008-01-02T21:00:00Z,30.6671,-87.9365,0.981,10.63,1111122 
DISL,ioos:station:DISL:MHPA:1,2008-01-02T21:30:00Z,30.6671,-87.9365,0.979,10.74,1111122 
DISL,ioos:station:DISL:MHPA:1,2008-01-02T22:00:00Z,30.6671,-87.9365,0.975,10.78,1111122 
DISL,ioos:station:DISL:MHPA:1,2008-01-02T22:30:00Z,30.6671,-87.9365,0.976,10.65,1111122 
DISL,ioos:station:DISL:MHPA:1,2008-01-02T23:00:00Z,30.6671,-87.9365,0.993,10.69,1111122 
DISL,ioos:station:DISL:MHPA:1,2008-01-02T23:30:00Z,30.6671,-87.9365,1.039,10.73,1111122 
DISL,ioos:station:DISL:MHPA:1,2008-01-03T00:00:00Z,30.6671,-87.9365,1.145,10.6,1111122 
DISL,ioos:station:DISL:MHPA:1,2008-01-03T00:30:00Z,30.6671,-87.9365,1.351,10.56,1111122 
DISL,ioos:station:DISL:MHPA:1,2008-01-03T01:00:00Z,30.6671,-87.9365,1.564,10.57,1111122 
DISL,ioos:station:DISL:MHPA:1,2008-01-03T01:30:00Z,30.6671,-87.9365,1.682,10.72,1111122 
DISL,ioos:station:DISL:MHPA:1,2008-01-03T02:00:00Z,30.6671,-87.9365,1.74,10.87,1111122 
DISL,ioos:station:DISL:MHPA:1,2008-01-03T02:30:00Z,30.6671,-87.9365,1.738,10.73,1111122 
DISL,ioos:station:DISL:MHPA:1,2008-01-03T03:00:00Z,30.6671,-87.9365,1.695,10.34,1111122 
DISL,ioos:station:DISL:MHPA:1,2008-01-03T03:30:00Z,30.6671,-87.9365,1.681,10.58,1111122 
DISL,ioos:station:DISL:MHPA:1,2008-01-03T04:00:00Z,30.6671,-87.9365,1.637,10.55,1111122 
DISL,ioos:station:DISL:MHPA:1,2008-01-03T04:30:00Z,30.6671,-87.9365,1.582,10.59,1111122 
DISL,ioos:station:DISL:MHPA:1,2008-01-03T05:00:00Z,30.6671,-87.9365,1.558,10.6,1111122 
DISL,ioos:station:DISL:MHPA:1,2008-01-03T05:30:00Z,30.6671,-87.9365,1.504,10.51,1111122 
DISL,ioos:station:DISL:MHPA:1,2008-01-03T06:00:00Z,30.6671,-87.9365,1.417,10.45,1111122 
DISL,ioos:station:DISL:MHPA:1,2008-01-03T06:30:00Z,30.6671,-87.9365,1.339,10.44,1111122 
DISL,ioos:station:DISL:MHPA:1,2008-01-03T07:00:00Z,30.6671,-87.9365,1.27,10.35,1111122 
DISL,ioos:station:DISL:MHPA:1,2008-01-03T07:30:00Z,30.6671,-87.9365,1.214,10.41,1111122 
DISL,ioos:station:DISL:MHPA:1,2008-01-03T08:00:00Z,30.6671,-87.9365,1.171,10.43,1111122 
DISL,ioos:station:DISL:MHPA:1,2008-01-03T08:30:00Z,30.6671,-87.9365,1.135,10.43,1111122 
DISL,ioos:station:DISL:MHPA:1,2008-01-03T09:00:00Z,30.6671,-87.9365,1.11,10.38,1111122 
DISL,ioos:station:DISL:MHPA:1,2008-01-03T09:30:00Z,30.6671,-87.9365,1.095,10.52,1111122 
DISL,ioos:station:DISL:MHPA:1,2008-01-03T10:00:00Z,30.6671,-87.9365,1.079,10.48,1111122 
DISL,ioos:station:DISL:MHPA:1,2008-01-03T10:30:00Z,30.6671,-87.9365,1.073,10.56,1111122 
DISL,ioos:station:DISL:MHPA:1,2008-01-03T11:00:00Z,30.6671,-87.9365,1.062,10.54,1111122 
DISL,ioos:station:DISL:MHPA:1,2008-01-03T11:30:00Z,30.6671,-87.9365,1.055,10.55,1111122 
DISL,ioos:station:DISL:MHPA:1,2008-01-03T12:00:00Z,30.6671,-87.9365,1.048,10.42,1111122 
DISL,ioos:station:DISL:MHPA:1,2008-01-03T12:30:00Z,30.6671,-87.9365,1.042,10.42,1111122 
DISL,ioos:station:DISL:MHPA:1,2008-01-03T13:00:00Z,30.6671,-87.9365,1.037,10.44,1111122 
DISL,ioos:station:DISL:MHPA:1,2008-01-03T13:30:00Z,30.6671,-87.9365,1.036,10.49,1111122 
DISL,ioos:station:DISL:MHPA:1,2008-01-03T14:00:00Z,30.6671,-87.9365,1.031,10.48,1111122 
DISL,ioos:station:DISL:MHPA:1,2008-01-03T14:30:00Z,30.6671,-87.9365,1.026,10.53,1111122 
DISL,ioos:station:DISL:MHPA:1,2008-01-03T15:00:00Z,30.6671,-87.9365,1.026,10.57,1111122 
DISL,ioos:station:DISL:MHPA:1,2008-01-03T15:30:00Z,30.6671,-87.9365,1.022,10.55,1111122 
DISL,ioos:station:DISL:MHPA:1,2008-01-03T16:00:00Z,30.6671,-87.9365,1.017,10.61,1111122 
DISL,ioos:station:DISL:MHPA:1,2008-01-03T16:30:00Z,30.6671,-87.9365,1.014,10.62,1111122 
DISL,ioos:station:DISL:MHPA:1,2008-01-03T17:00:00Z,30.6671,-87.9365,1.013,10.67,1111122 
DISL,ioos:station:DISL:MHPA:1,2008-01-03T17:30:00Z,30.6671,-87.9365,1.011,10.7,1111122 
DISL,ioos:station:DISL:MHPA:1,2008-01-03T18:00:00Z,30.6671,-87.9365,1.009,10.47,1111122 
DISL,ioos:station:DISL:MHPA:1,2008-01-03T18:30:00Z,30.6671,-87.9365,1.007,10.44,1111122 
DISL,ioos:station:DISL:MHPA:1,2008-01-03T19:00:00Z,30.6671,-87.9365,1.006,10.26,1111122 
DISL,ioos:station:DISL:MHPA:1,2008-01-03T19:30:00Z,30.6671,-87.9365,1.005,10.43,1111122 
DISL,ioos:station:DISL:MHPA:1,2008-01-03T20:00:00Z,30.6671,-87.9365,1.03,10.66,1111122 
DISL,ioos:station:DISL:MHPA:1,2008-01-03T20:30:00Z,30.6671,-87.9365,1.09,10.72,1111122 
DISL,ioos:station:DISL:MHPA:1,2008-01-03T21:00:00Z,30.6671,-87.9365,1.256,10.33,1111122 
DISL,ioos:station:DISL:MHPA:1,2008-01-03T21:30:00Z,30.6671,-87.9365,1.508,11.16,1111122 
DISL,ioos:station:DISL:MHPA:1,2008-01-03T22:00:00Z,30.6671,-87.9365,1.749,11.46,1111122 
DISL,ioos:station:DISL:MHPA:1,2008-01-03T22:30:00Z,30.6671,-87.9365,1.896,11.21,1111122 
DISL,ioos:station:DISL:MHPA:1,2008-01-03T23:00:00Z,30.6671,-87.9365,1.998,10.79,1111122 
DISL,ioos:station:DISL:MHPA:1,2008-01-03T23:30:00Z,30.6671,-87.9365,2.14,10.59,1111122 
DISL,ioos:station:DISL:MHPA:1,2008-01-04T00:00:00Z,30.6671,-87.9365,2.268,10.83,1111122 
DISL,ioos:station:DISL:MHPA:1,2008-01-04T00:30:00Z,30.6671,-87.9365,2.367,10.58,1111122 
DISL,ioos:station:DISL:MHPA:1,2008-01-04T01:00:00Z,30.6671,-87.9365,2.501,10.38,1111122 
DISL,ioos:station:DISL:MHPA:1,2008-01-04T01:30:00Z,30.6671,-87.9365,2.58,10.21,1111122 
DISL,ioos:station:DISL:MHPA:1,2008-01-04T02:00:00Z,30.6671,-87.9365,2.646,9.95,1111122 
DISL,ioos:station:DISL:MHPA:1,2008-01-04T02:30:00Z,30.6671,-87.9365,2.72,10.03,1111122 
DISL,ioos:station:DISL:MHPA:1,2008-01-04T03:00:00Z,30.6671,-87.9365,2.76,10.38,1111122 
DISL,ioos:station:DISL:MHPA:1,2008-01-04T03:30:00Z,30.6671,-87.9365,2.765,10.3,1111122 
DISL,ioos:station:DISL:MHPA:1,2008-01-04T04:00:00Z,30.6671,-87.9365,2.767,10.38,1111122 
DISL,ioos:station:DISL:MHPA:1,2008-01-04T04:30:00Z,30.6671,-87.9365,2.722,10.09,1111122 
DISL,ioos:station:DISL:MHPA:1,2008-01-04T05:00:00Z,30.6671,-87.9365,2.69,10.95,1111122 
DISL,ioos:station:DISL:MHPA:1,2008-01-04T05:30:00Z,30.6671,-87.9365,2.632,10.97,1111122 
DISL,ioos:station:DISL:MHPA:1,2008-01-04T06:00:00Z,30.6671,-87.9365,2.507,10.45,1111122 
DISL,ioos:station:DISL:MHPA:1,2008-01-04T06:30:00Z,30.6671,-87.9365,2.351,9.92,1111122 
DISL,ioos:station:DISL:MHPA:1,2008-01-04T07:00:00Z,30.6671,-87.9365,2.233,10.75,1111122 
DISL,ioos:station:DISL:MHPA:1,2008-01-04T07:30:00Z,30.6671,-87.9365,2.119,11.54,1111122 
DISL,ioos:station:DISL:MHPA:1,2008-01-04T08:00:00Z,30.6671,-87.9365,2.011,11.65,1111122 
DISL,ioos:station:DISL:MHPA:1,2008-01-04T08:30:00Z,30.6671,-87.9365,1.922,11.18,1111122 
DISL,ioos:station:DISL:MHPA:1,2008-01-04T09:00:00Z,30.6671,-87.9365,1.853,10.84,1111122 
DISL,ioos:station:DISL:MHPA:1,2008-01-04T09:30:00Z,30.6671,-87.9365,1.751,10.81,1111122 
DISL,ioos:station:DISL:MHPA:1,2008-01-04T10:00:00Z,30.6671,-87.9365,1.666,11.22,1111122 
DISL,ioos:station:DISL:MHPA:1,2008-01-04T10:30:00Z,30.6671,-87.9365,1.573,11.42,1111122 
DISL,ioos:station:DISL:MHPA:1,2008-01-04T11:00:00Z,30.6671,-87.9365,1.494,10.86,1111122 
DISL,ioos:station:DISL:MHPA:1,2008-01-04T11:30:00Z,30.6671,-87.9365,1.409,11.05,1111122 
DISL,ioos:station:DISL:MHPA:1,2008-01-04T12:00:00Z,30.6671,-87.9365,1.333,11.95,1111122 
DISL,ioos:station:DISL:MHPA:1,2008-01-04T12:30:00Z,30.6671,-87.9365,1.262,11.67,1111122 
DISL,ioos:station:DISL:MHPA:1,2008-01-04T13:00:00Z,30.6671,-87.9365,1.208,11.82,1111122 
DISL,ioos:station:DISL:MHPA:1,2008-01-04T13:30:00Z,30.6671,-87.9365,1.166,11.56,1111122 
DISL,ioos:station:DISL:MHPA:1,2008-01-04T14:00:00Z,30.6671,-87.9365,1.137,11.71,1111122 
DISL,ioos:station:DISL:MHPA:1,2008-01-04T14:30:00Z,30.6671,-87.9365,1.124,11.58,1111122 
DISL,ioos:station:DISL:MHPA:1,2008-01-04T15:00:00Z,30.6671,-87.9365,1.11,11.73,1111122 
DISL,ioos:station:DISL:MHPA:1,2008-01-04T15:30:00Z,30.6671,-87.9365,1.095,11.65,1111122 
DISL,ioos:station:DISL:MHPA:1,2008-01-04T16:00:00Z,30.6671,-87.9365,1.103,12.1,1111122 
DISL,ioos:station:DISL:MHPA:1,2008-01-04T16:30:00Z,30.6671,-87.9365,1.196,11.89,1111122 
DISL,ioos:station:DISL:MHPA:1,2008-01-04T17:00:00Z,30.6671,-87.9365,1.415,11.95,1111122 
DISL,ioos:station:DISL:MHPA:1,2008-01-04T17:30:00Z,30.6671,-87.9365,1.612,12.89,1111122 
DISL,ioos:station:DISL:MHPA:1,2008-01-04T18:00:00Z,30.6671,-87.9365,1.718,12.69,1111122 
DISL,ioos:station:DISL:MHPA:1,2008-01-04T18:30:00Z,30.6671,-87.9365,1.852,12.84,1111122 
DISL,ioos:station:DISL:MHPA:1,2008-01-04T19:00:00Z,30.6671,-87.9365,1.99,13.23,1111122 
DISL,ioos:station:DISL:MHPA:1,2008-01-04T19:30:00Z,30.6671,-87.9365,2.151,14.4,1111122 
DISL,ioos:station:DISL:MHPA:1,2008-01-04T20:00:00Z,30.6671,-87.9365,2.323,14.76,1111122 
DISL,ioos:station:DISL:MHPA:1,2008-01-04T20:30:00Z,30.6671,-87.9365,2.458,12.71,1111122 
DISL,ioos:station:DISL:MHPA:1,2008-01-04T21:00:00Z,30.6671,-87.9365,2.553,13.85,1111122 
DISL,ioos:station:DISL:MHPA:1,2008-01-04T21:30:00Z,30.6671,-87.9365,2.664,13.4,1111122 
DISL,ioos:station:DISL:MHPA:1,2008-01-04T22:00:00Z,30.6671,-87.9365,2.803,12.57,1111122 
DISL,ioos:station:DISL:MHPA:1,2008-01-04T22:30:00Z,30.6671,-87.9365,2.905,14.46,1111122 
DISL,ioos:station:DISL:MHPA:1,2008-01-04T23:00:00Z,30.6671,-87.9365,3.03,14.45,1111122 
DISL,ioos:station:DISL:MHPA:1,2008-01-04T23:30:00Z,30.6671,-87.9365,3.111,13.87,1111122 
DISL,ioos:station:DISL:MHPA:1,2008-01-05T00:00:00Z,30.6671,-87.9365,3.232,13.57,1111122 
DISL,ioos:station:DISL:MHPA:1,2008-01-05T00:30:00Z,30.6671,-87.9365,3.325,13.31,1111122 
DISL,ioos:station:DISL:MHPA:1,2008-01-05T01:00:00Z,30.6671,-87.9365,3.379,13.25,1111122 
DISL,ioos:station:DISL:MHPA:1,2008-01-05T01:30:00Z,30.6671,-87.9365,3.463,13.22,1111122 
DISL,ioos:station:DISL:MHPA:1,2008-01-05T02:00:00Z,30.6671,-87.9365,3.527,13.26,1111122 
DISL,ioos:station:DISL:MHPA:1,2008-01-05T02:30:00Z,30.6671,-87.9365,3.533,13.17,1111122 
DISL,ioos:station:DISL:MHPA:1,2008-01-05T03:00:00Z,30.6671,-87.9365,3.572,13.01,1111122 
DISL,ioos:station:DISL:MHPA:1,2008-01-05T03:30:00Z,30.6671,-87.9365,3.652,13.09,1111122 
DISL,ioos:station:DISL:MHPA:1,2008-01-05T04:00:00Z,30.6671,-87.9365,3.705,12.83,1111122 
DISL,ioos:station:DISL:MHPA:1,2008-01-05T04:30:00Z,30.6671,-87.9365,3.657,12.64,1111122 
DISL,ioos:station:DISL:MHPA:1,2008-01-05T05:00:00Z,30.6671,-87.9365,3.657,12.58,1111122 
DISL,ioos:station:DISL:MHPA:1,2008-01-05T05:30:00Z,30.6671,-87.9365,3.582,12.67,1111122 
DISL,ioos:station:DISL:MHPA:1,2008-01-05T06:00:00Z,30.6671,-87.9365,3.437,12.68,1111122 
DISL,ioos:station:DISL:MHPA:1,2008-01-05T06:30:00Z,30.6671,-87.9365,3.355,12.62,1111122 
DISL,ioos:station:DISL:MHPA:1,2008-01-05T07:00:00Z,30.6671,-87.9365,3.223,12.52,1111122 
DISL,ioos:station:DISL:MHPA:1,2008-01-05T07:30:00Z,30.6671,-87.9365,3.116,12.23,1111122 
DISL,ioos:station:DISL:MHPA:1,2008-01-05T08:00:00Z,30.6671,-87.9365,2.987,11.62,1111122 
DISL,ioos:station:DISL:MHPA:1,2008-01-05T08:30:00Z,30.6671,-87.9365,2.855,11.76,1111122 
DISL,ioos:station:DISL:MHPA:1,2008-01-05T09:00:00Z,30.6671,-87.9365,2.706,11.66,1111122 
DISL,ioos:station:DISL:MHPA:1,2008-01-05T09:30:00Z,30.6671,-87.9365,2.59,11.69,1111122 
DISL,ioos:station:DISL:MHPA:1,2008-01-05T10:00:00Z,30.6671,-87.9365,2.496,11.6,1111122 
DISL,ioos:station:DISL:MHPA:1,2008-01-05T10:30:00Z,30.6671,-87.9365,2.412,12.16,1111122 
DISL,ioos:station:DISL:MHPA:1,2008-01-05T11:00:00Z,30.6671,-87.9365,2.322,11.62,1111122 
DISL,ioos:station:DISL:MHPA:1,2008-01-05T11:30:00Z,30.6671,-87.9365,2.236,12.03,1111122 
DISL,ioos:station:DISL:MHPA:1,2008-01-05T12:00:00Z,30.6671,-87.9365,2.169,12.05,1111122 
DISL,ioos:station:DISL:MHPA:1,2008-01-05T12:30:00Z,30.6671,-87.9365,2.074,11.98,1111122 
DISL,ioos:station:DISL:MHPA:1,2008-01-05T13:00:00Z,30.6671,-87.9365,1.983,11.87,1111122 
DISL,ioos:station:DISL:MHPA:1,2008-01-05T13:30:00Z,30.6671,-87.9365,1.933,11.03,1111122 
DISL,ioos:station:DISL:MHPA:1,2008-01-05T14:00:00Z,30.6671,-87.9365,1.888,11.78,1111122 
DISL,ioos:station:DISL:MHPA:1,2008-01-05T14:30:00Z,30.6671,-87.9365,1.814,11.46,1111122 
DISL,ioos:station:DISL:MHPA:1,2008-01-05T15:00:00Z,30.6671,-87.9365,1.776,11.81,1111122 
DISL,ioos:station:DISL:MHPA:1,2008-01-05T15:30:00Z,30.6671,-87.9365,1.805,11.88,1111122 
DISL,ioos:station:DISL:MHPA:1,2008-01-05T16:00:00Z,30.6671,-87.9365,1.858,11.86,1111122 
DISL,ioos:station:DISL:MHPA:1,2008-01-05T16:30:00Z,30.6671,-87.9365,1.944,11.89,1111122 
DISL,ioos:station:DISL:MHPA:1,2008-01-05T17:00:00Z,30.6671,-87.9365,2.081,11.96,1111122 
DISL,ioos:station:DISL:MHPA:1,2008-01-05T17:30:00Z,30.6671,-87.9365,2.158,12.21,1111122 
DISL,ioos:station:DISL:MHPA:1,2008-01-05T18:00:00Z,30.6671,-87.9365,2.25,12.25,1111122 
DISL,ioos:station:DISL:MHPA:1,2008-01-05T18:30:00Z,30.6671,-87.9365,2.419,12.28,1111122 
DISL,ioos:station:DISL:MHPA:1,2008-01-05T19:00:00Z,30.6671,-87.9365,2.542,12.34,1111122 
DISL,ioos:station:DISL:MHPA:1,2008-01-05T19:30:00Z,30.6671,-87.9365,2.649,13.06,1111122 
DISL,ioos:station:DISL:MHPA:1,2008-01-05T20:00:00Z,30.6671,-87.9365,2.819,12.83,1111122 
DISL,ioos:station:DISL:MHPA:1,2008-01-05T20:30:00Z,30.6671,-87.9365,2.979,13.03,1111122 
DISL,ioos:station:DISL:MHPA:1,2008-01-05T21:00:00Z,30.6671,-87.9365,3.102,13.6,1111122 
DISL,ioos:station:DISL:MHPA:1,2008-01-05T21:30:00Z,30.6671,-87.9365,3.177,13.7,1111122 
DISL,ioos:station:DISL:MHPA:1,2008-01-05T22:00:00Z,30.6671,-87.9365,3.253,13.2,1111122 
DISL,ioos:station:DISL:MHPA:1,2008-01-05T22:30:00Z,30.6671,-87.9365,3.385,13.72,1111122 
DISL,ioos:station:DISL:MHPA:1,2008-01-05T23:00:00Z,30.6671,-87.9365,3.5,12.95,1111122 
DISL,ioos:station:DISL:MHPA:1,2008-01-05T23:30:00Z,30.6671,-87.9365,3.614,12.94,1111122 
DISL,ioos:station:DISL:MHPA:1,2008-01-06T00:00:00Z,30.6671,-87.9365,3.709,13.06,1111122 
DISL,ioos:station:DISL:MHPA:1,2008-01-06T00:30:00Z,30.6671,-87.9365,3.838,12.67,1111122 
DISL,ioos:station:DISL:MHPA:1,2008-01-06T01:00:00Z,30.6671,-87.9365,3.947,12.46,1111122 
DISL,ioos:station:DISL:MHPA:1,2008-01-06T01:30:00Z,30.6671,-87.9365,4.062,12.65,1111122 
DISL,ioos:station:DISL:MHPA:1,2008-01-06T02:00:00Z,30.6671,-87.9365,4.176,12.53,1111122 
DISL,ioos:station:DISL:MHPA:1,2008-01-06T02:30:00Z,30.6671,-87.9365,4.219,12.14,1111122 
DISL,ioos:station:DISL:MHPA:1,2008-01-06T03:00:00Z,30.6671,-87.9365,4.292,11.73,1111122 
DISL,ioos:station:DISL:MHPA:1,2008-01-06T03:30:00Z,30.6671,-87.9365,4.357,11.67,1111122 
DISL,ioos:station:DISL:MHPA:1,2008-01-06T04:00:00Z,30.6671,-87.9365,4.33,11.46,1111122 
DISL,ioos:station:DISL:MHPA:1,2008-01-06T04:30:00Z,30.6671,-87.9365,4.347,11.57,1111122 
DISL,ioos:station:DISL:MHPA:1,2008-01-06T05:00:00Z,30.6671,-87.9365,4.369,11.57,1111122 
DISL,ioos:station:DISL:MHPA:1,2008-01-06T05:30:00Z,30.6671,-87.9365,4.306,11.24,1111122 
DISL,ioos:station:DISL:MHPA:1,2008-01-06T06:00:00Z,30.6671,-87.9365,4.228,10.73,1111122 
DISL,ioos:station:DISL:MHPA:1,2008-01-06T06:30:00Z,30.6671,-87.9365,4.097,10.19,1111122 
DISL,ioos:station:DISL:MHPA:1,2008-01-06T07:00:00Z,30.6671,-87.9365,3.98,7.76,1111122 
DISL,ioos:station:DISL:MHPA:1,2008-01-06T07:30:00Z,30.6671,-87.9365,3.796,6.62,1111122 
DISL,ioos:station:DISL:MHPA:1,2008-01-06T08:00:00Z,30.6671,-87.9365,3.63,7.2,1111122 
DISL,ioos:station:DISL:MHPA:1,2008-01-06T08:30:00Z,30.6671,-87.9365,3.481,7.37,1111122 
DISL,ioos:station:DISL:MHPA:1,2008-01-06T09:00:00Z,30.6671,-87.9365,3.321,6.73,1111122 
DISL,ioos:station:DISL:MHPA:1,2008-01-06T09:30:00Z,30.6671,-87.9365,3.206,4.85,1111122 
DISL,ioos:station:DISL:MHPA:1,2008-01-06T10:00:00Z,30.6671,-87.9365,3.087,7.48,1111122 
DISL,ioos:station:DISL:MHPA:1,2008-01-06T10:30:00Z,30.6671,-87.9365,2.948,7.72,1111122 
DISL,ioos:station:DISL:MHPA:1,2008-01-06T11:00:00Z,30.6671,-87.9365,2.824,7.12,1111122 
DISL,ioos:station:DISL:MHPA:1,2008-01-06T11:30:00Z,30.6671,-87.9365,2.736,6.68,1111122 
DISL,ioos:station:DISL:MHPA:1,2008-01-06T12:00:00Z,30.6671,-87.9365,2.612,6.91,1111122 
DISL,ioos:station:DISL:MHPA:1,2008-01-06T12:30:00Z,30.6671,-87.9365,2.515,7.49,1111122 
DISL,ioos:station:DISL:MHPA:1,2008-01-06T13:00:00Z,30.6671,-87.9365,2.436,7.58,1111122 
DISL,ioos:station:DISL:MHPA:1,2008-01-06T13:30:00Z,30.6671,-87.9365,2.373,8.86,1111122 
DISL,ioos:station:DISL:MHPA:1,2008-01-06T14:00:00Z,30.6671,-87.9365,2.281,8.66,1111122 
DISL,ioos:station:DISL:MHPA:1,2008-01-06T14:30:00Z,30.6671,-87.9365,2.196,7.79,1111122 
DISL,ioos:station:DISL:MHPA:1,2008-01-06T15:00:00Z,30.6671,-87.9365,2.132,8.03,1111122 
DISL,ioos:station:DISL:MHPA:1,2008-01-06T15:30:00Z,30.6671,-87.9365,2.102,8.72,1111122 
DISL,ioos:station:DISL:MHPA:1,2008-01-06T16:00:00Z,30.6671,-87.9365,2.056,9.48,1111122 
DISL,ioos:station:DISL:MHPA:1,2008-01-06T16:30:00Z,30.6671,-87.9365,2.043,10.46,1111122 
DISL,ioos:station:DISL:MHPA:1,2008-01-06T17:00:00Z,30.6671,-87.9365,2.057,10.25,1111122 
DISL,ioos:station:DISL:MHPA:1,2008-01-06T17:30:00Z,30.6671,-87.9365,2.123,10.83,1111122 
DISL,ioos:station:DISL:MHPA:1,2008-01-06T18:00:00Z,30.6671,-87.9365,2.232,11.11,1111122 
DISL,ioos:station:DISL:MHPA:1,2008-01-06T18:30:00Z,30.6671,-87.9365,2.309,11.33,1111122 
DISL,ioos:station:DISL:MHPA:1,2008-01-06T19:00:00Z,30.6671,-87.9365,2.451,12.18,1111122 
DISL,ioos:station:DISL:MHPA:1,2008-01-06T19:30:00Z,30.6671,-87.9365,2.578,11.94,1111122 
DISL,ioos:station:DISL:MHPA:1,2008-01-06T20:00:00Z,30.6671,-87.9365,2.673,12.05,1111122 
DISL,ioos:station:DISL:MHPA:1,2008-01-06T20:30:00Z,30.6671,-87.9365,2.821,11.69,1111122 
DISL,ioos:station:DISL:MHPA:1,2008-01-06T21:00:00Z,30.6671,-87.9365,2.941,12.22,1111122 